Weather History for KLEE - April, 2013

Change the Weather History Date:

Thursday, April 11, 2013

  Actual Average Record
Temperature  
Mean Temperature 82 °F -  
Max Temperature 90 °F 79 °F 91 °F (1965)
Min Temperature 75 °F 56 °F 43 °F (1960)
Cooling Degree Days 16    
Growing Degree Days 32 (Base 50)    
Moisture  
Dew Point 70 °F    
Average Humidity 76    
Maximum Humidity 90    
Minimum Humidity 49    
Precipitation  
Precipitation 0.11 in - - ()
Sea Level Pressure  
Sea Level Pressure 29.95 in    
Wind  
Wind Speed 10 mph (SSE)    
Max Wind Speed 20 mph    
Max Gust Speed 31 mph    
Visibility 10 miles    
Events Rain    
Averages and records for this station are not official NWS values.
T = Trace of Precipitation, MM = Missing Value Source: NWS Daily Summary

Daily Weather History Graph

Daily Weather History Graph

Search for Another Location

Airport or City:

Trip Planner

Search our weather history database for the weather conditions in past years. The results will help you decide how hot, cold, wet, or windy it might be!

Date:

Astronomy

Apr. 11, 2013 Rise Set
Actual Time 7:05 AM EDT 7:51 PM EDT
Civil Twilight 6:41 AM EDT 8:15 PM EDT
Nautical Twilight 6:13 AM EDT 8:43 PM EDT
Astronomical Twilight 5:44 AM EDT 9:12 PM EDT
Moon 7:43 AM EDT (4/11) 9:15 PM EDT (4/11)
Length of Visible Light 13h 33m
Length of Day
12h 45m
New Moon, 2% of the Moon is Illuminated
Apr 11
New Moon
Apr 18
First Quarter
Apr 25
Full
May 2
Last Quarter
May 9
New

Hourly Weather History & Observations

Time (EDT) Temp. Heat Index Dew Point Humidity Pressure Visibility Wind Dir Wind Speed Gust Speed Precip Events Conditions
12:48 AM 75.2 °F - 69.8 °F 83% 30.02 in 10.0 mi SSE 12.7 mph - N/A   Overcast
12:53 AM 75.0 °F - 70.0 °F 84% 30.01 in 10.0 mi SSE 11.5 mph 19.6 mph N/A   Overcast
1:53 AM 75.0 °F - 70.0 °F 84% 29.99 in 10.0 mi SSE 10.4 mph - N/A   Overcast
2:53 AM 75.0 °F - 69.1 °F 82% 29.98 in 10.0 mi SSE 10.4 mph 18.4 mph N/A   Overcast
3:53 AM 75.0 °F - 70.0 °F 84% 29.97 in 10.0 mi SSE 10.4 mph - N/A   Overcast
4:23 AM 75.2 °F - 69.8 °F 83% 29.96 in 10.0 mi SSE 9.2 mph - N/A   Mostly Cloudy
4:51 AM 75.2 °F - 69.8 °F 83% 29.97 in 10.0 mi South 8.1 mph - N/A   Overcast
4:53 AM 75.0 °F - 70.0 °F 84% 29.96 in 10.0 mi South 9.2 mph - N/A   Overcast
5:53 AM 75.0 °F - 70.0 °F 84% 29.97 in 10.0 mi South 9.2 mph - N/A   Overcast
6:00 AM 75.2 °F - 69.8 °F 83% 29.97 in 10.0 mi SSE 9.2 mph - N/A   Overcast
6:53 AM 75.0 °F - 69.1 °F 82% 29.98 in 10.0 mi SSE 10.4 mph - N/A   Overcast
7:53 AM 75.0 °F - 70.0 °F 84% 29.99 in 10.0 mi SSE 9.2 mph - N/A   Overcast
8:14 AM 75.2 °F - 69.8 °F 83% 30.00 in 10.0 mi SSE 6.9 mph - N/A   Mostly Cloudy
8:53 AM 75.9 °F - 70.0 °F 82% 30.01 in 10.0 mi SSE 9.2 mph - N/A   Overcast
9:53 AM 79.0 °F - 70.0 °F 74% 30.02 in 10.0 mi SSE 10.4 mph - N/A   Overcast
10:37 AM 80.6 °F 83.9 °F 69.8 °F 70% 30.02 in - North - - N/A   Scattered Clouds
10:53 AM - - - N/A% 30.01 in - North - - N/A   Mostly Cloudy
11:07 AM - - - N/A% 30.01 in - North - - N/A   Mostly Cloudy
11:17 AM - - - N/A% 30.01 in 10.0 mi North - - N/A   Mostly Cloudy
11:27 AM - - - N/A% 30.01 in 10.0 mi North - - N/A   Scattered Clouds
11:53 AM - - - N/A% 30.00 in 10.0 mi SSE 9.2 mph - N/A   Partly Cloudy
1:53 PM 88.0 °F 92.1 °F 69.1 °F 53% 29.95 in 10.0 mi SSE 10.4 mph 16.1 mph N/A   Clear
2:53 PM 88.0 °F 91.4 °F 68.0 °F 51% 29.92 in 10.0 mi SSE 10.4 mph - N/A   Scattered Clouds
3:53 PM 88.0 °F 90.7 °F 66.9 °F 49% 29.89 in 10.0 mi SSE 9.2 mph - N/A   Scattered Clouds
4:53 PM 88.0 °F 90.7 °F 66.9 °F 49% 29.86 in 10.0 mi South 12.7 mph - N/A   Scattered Clouds
5:53 PM 86.0 °F 88.2 °F 66.0 °F 51% 29.85 in 10.0 mi South 9.2 mph - N/A   Partly Cloudy
6:53 PM 84.9 °F 87.6 °F 66.9 °F 55% 29.84 in 10.0 mi South 9.2 mph - N/A   Clear
7:53 PM 84.0 °F 86.5 °F 66.9 °F 56% 29.84 in 10.0 mi South 10.4 mph - N/A   Mostly Cloudy
8:30 PM 75.2 °F - 71.6 °F 89% 29.85 in 2.0 mi South 19.6 mph 31.1 mph 0.10 in Rain Heavy Rain
8:39 PM 75.2 °F - 71.6 °F 89% 29.86 in 10.0 mi SSW 12.7 mph 25.3 mph 0.10 in Rain Light Rain
8:53 PM 75.0 °F - 71.1 °F 87% 29.86 in 10.0 mi South 12.7 mph - 0.11 in Rain Light Rain
9:53 PM 75.0 °F - 71.1 °F 87% 29.85 in 10.0 mi South 6.9 mph - 0.00 in   Scattered Clouds
10:53 PM 75.0 °F - 71.1 °F 87% 29.89 in 10.0 mi SSW 4.6 mph - N/A   Overcast
11:53 PM 75.0 °F - 72.0 °F 90% 29.89 in 10.0 mi South 5.8 mph - N/A   Partly Cloudy